Total_Precipitation_Accumulation
0.00 0.00 0.00 0.00 0.00 0.00 0.00 0.00 0.00 0.00 0.00 0.00 0.00 0.00 0.00 0.00 0.00 0.00 0.00 0.00 0.00 0.00 0.00 0.00 0.00 0.00 0.00 0.00 0.00 0.00 0.00 0.00 0.00 0.00 0.00 0.00 0.00 0.00 0.00 0.00 0.00 0.00 0.00 0.00 0.00 0.00 0.00
0.00 0.00 0.00 0.00 0.00 0.00 0.00 0.00 0.00 0.00 0.00 0.00 0.00 0.00 0.00 0.00 0.00 0.00 0.00 0.00 0.00 0.00 0.00 0.00 0.00 0.00 0.00 0.00 0.00 0.00 0.00 0.00 0.00 0.00 0.00 0.00 0.00 0.00 0.00 0.00 0.00 0.00 0.00 0.00 0.00 0.00 0.00
0.00 0.00 0.00 0.00 0.00 0.00 0.00 0.00 0.00 0.00 0.00 0.00 0.00 0.00 0.00 0.00 0.00 0.00 0.00 0.00 0.00 0.00 0.00 0.00 0.00 0.00 0.00 0.00 0.00 0.00 0.00 0.00 0.00 0.00 0.00 0.00 0.00 0.00 0.00 0.00 0.00 0.00 0.00 0.00 0.00 0.00 0.00
0.00 0.00 0.00 0.00 0.00 0.00 0.00 0.00 0.00 0.00 0.00 0.00 0.00 0.00 0.00 0.00 0.00 0.00 0.00 0.00 0.00 0.00 0.00 0.00 0.00 0.00 0.00 0.00 0.00 0.00 0.00 0.00 0.00 0.00 0.00 0.00 0.00 0.00 0.00 0.00 0.00 0.00 0.00 0.00 0.00 0.00 0.00
0.00 0.00 0.00 0.00 0.00 0.00 0.00 0.00 0.00 0.00 0.00 0.00 0.00 0.00 0.00 0.00 0.00 0.00 0.00 0.00 0.00 0.00 0.00 0.00 0.00 0.00 0.00 0.00 0.00 0.00 0.00 0.00 0.00 0.00 0.00 0.00 0.00 0.00 0.00 0.00 0.00 0.00 0.00 0.00 0.00 0.00 0.00
0.00 0.00 0.00 0.00 0.00 0.00 0.00 0.00 0.00 0.00 0.00 0.00 0.00 0.00 0.00 0.00 0.00 0.00 0.00 0.00 0.00 0.00 0.00 0.00 0.00 0.00 0.00 0.00 0.00 0.00 0.00 0.00 0.00 0.00 0.00 0.00 0.00 0.00 0.00 0.00 0.00 0.00 0.00 0.00 0.00 0.00 0.00
0.00 0.00 0.00 0.00 0.00 0.00 0.00 0.00 0.00 0.00 0.00 0.00 0.00 0.00 0.00 0.00 0.00 0.00 0.00 0.00 0.00 0.00 0.00 0.00 0.00 0.00 0.00 0.00 0.00 0.00 0.00 0.00 0.00 0.00 0.00 0.00 0.00 0.00 0.00 0.00 0.00 0.00 0.00 0.00 0.00 0.00 0.00
0.00 0.00 0.00 0.00 0.00 0.00 0.00 0.00 0.00 0.00 0.00 0.00 0.00 0.00 0.00 0.00 0.00 0.00 0.00 0.00 0.00 0.00 0.00 0.00 0.00 0.00 0.00 0.00 0.00 0.00 0.00 0.00 0.00 0.00 0.00 0.00 0.00 0.00 0.00 0.00 0.00 0.00 0.00 0.00 0.00 0.00 0.00
0.00 0.00 0.00 0.00 0.00 0.00 0.00 0.00 0.00 0.00 0.00 0.00 0.00 0.00 0.00 0.00 0.00 0.00 0.00 0.00 0.00 0.00 0.00 0.00 0.00 0.00 0.00 0.00 0.00 0.00 0.00 0.00 0.00 0.00 0.00 0.00 0.00 0.00 0.00 0.00 0.00 0.00 0.00 0.00 0.00 0.00 0.00
0.01 0.00 0.00 0.00 0.00 0.00 0.00 0.00 0.00 0.00 0.00 0.00 0.00 0.00 0.00 0.00 0.00 0.00 0.00 0.00 0.00 0.00 0.00 0.00 0.00 0.00 0.00 0.00 0.00 0.00 0.00 0.00 0.00 0.00 0.00 0.00 0.00 0.00 0.00 0.00 0.00 0.00 0.00 0.00 0.00 0.00 0.00
0.09 0.01 0.00 0.00 0.00 0.00 0.00 0.00 0.00 0.00 0.00 0.00 0.00 0.00 0.00 0.00 0.00 0.00 0.00 0.00 0.00 0.00 0.00 0.00 0.00 0.00 0.00 0.00 0.00 0.00 0.00 0.00 0.00 0.00 0.00 0.00 0.00 0.00 0.00 0.00 0.00 0.00 0.00 0.00 0.00 0.00 0.00
0.11 0.07 0.01 0.00 0.00 0.00 0.00 0.00 0.00 0.00 0.00 0.00 0.00 0.00 0.00 0.00 0.00 0.00 0.00 0.00 0.00 0.00 0.00 0.00 0.00 0.00 0.00 0.00 0.00 0.00 0.00 0.00 0.00 0.00 0.00 0.00 0.00 0.00 0.00 0.00 0.00 0.00 0.00 0.00 0.00 0.00 0.00
0.12 0.06 0.03 0.01 0.00 0.00 0.00 0.00 0.00 0.00 0.00 0.00 0.00 0.00 0.00 0.00 0.00 0.00 0.00 0.00 0.00 0.00 0.00 0.00 0.00 0.00 0.00 0.00 0.00 0.00 0.00 0.00 0.00 0.00 0.00 0.00 0.00 0.00 0.00 0.00 0.00 0.00 0.00 0.00 0.00 0.00 0.00
0.30 0.12 0.07 0.03 0.00 0.00 0.00 0.00 0.00 0.00 0.00 0.00 0.00 0.01 0.01 0.00 0.00 0.00 0.00 0.03 0.04 0.00 0.00 0.00 0.00 0.00 0.00 0.00 0.00 0.00 0.00 0.00 0.00 0.00 0.00 0.00 0.00 0.00 0.00 0.00 0.00 0.00 0.00 0.00 0.00 0.00 0.00
0.66 0.29 0.15 0.08 0.01 0.00 0.00 0.00 0.00 0.00 0.00 0.00 0.04 0.06 0.03 0.02 0.01 0.07 0.18 0.16 0.03 0.00 0.00 0.00 0.00 0.00 0.00 0.00 0.00 0.00 0.00 0.00 0.00 0.00 0.00 0.00 0.00 0.00 0.00 0.00 0.00 0.00 0.00 0.00 0.00 0.01 0.01
0.60 0.54 0.33 0.19 0.06 0.01 0.00 0.00 0.00 0.00 0.00 0.02 0.06 0.11 0.09 0.05 0.13 0.42 0.52 0.25 0.01 0.00 0.00 0.00 0.02 0.00 0.00 0.00 0.00 0.00 0.00 0.00 0.00 0.00 0.00 0.00 0.00 0.00 0.00 0.00 0.00 0.00 0.00 0.00 0.04 0.10 0.04
0.64 0.41 0.39 0.30 0.16 0.05 0.00 0.00 0.00 0.01 0.03 0.17 0.33 0.41 0.17 0.06 0.25 0.63 0.38 0.06 0.00 0.00 0.00 0.00 0.00 0.01 0.01 0.01 0.02 0.02 0.03 0.00 0.00 0.00 0.00 0.00 0.01 0.00 0.00 0.00 0.00 0.00 0.00 0.00 0.07 0.07 0.10
0.76 0.78 0.47 0.31 0.22 0.15 0.06 0.01 0.03 0.07 0.26 0.58 0.56 0.52 0.25 0.13 0.33 0.36 0.13 0.01 0.00 0.00 0.00 0.00 0.00 0.02 0.04 0.07 0.11 0.07 0.02 0.00 0.00 0.00 0.01 0.01 0.02 0.02 0.00 0.00 0.00 0.00 0.00 0.01 0.27 0.15 0.20
0.82 0.69 0.87 0.85 0.37 0.23 0.13 0.06 0.07 0.25 0.42 0.58 0.81 0.59 0.44 0.35 0.29 0.16 0.06 0.02 0.01 0.01 0.01 0.03 0.05 0.08 0.10 0.12 0.16 0.09 0.02 0.00 0.00 0.01 0.01 0.01 0.05 0.03 0.00 0.00 0.00 0.00 0.00 0.00 0.07 0.15 0.12
0.86 0.88 0.61 0.69 0.98 0.69 0.47 0.33 0.29 0.45 0.70 0.85 1.09 0.81 0.55 0.38 0.19 0.05 0.04 0.05 0.03 0.02 0.06 0.11 0.17 0.16 0.16 0.16 0.13 0.17 0.06 0.01 0.00 0.00 0.02 0.03 0.07 0.01 0.00 0.00 0.00 0.02 0.00 0.03 0.18 0.28 0.13
0.63 0.92 0.96 0.86 0.83 1.11 1.25 1.14 1.04 1.23 1.39 1.60 1.77 1.21 0.51 0.30 0.13 0.06 0.14 0.27 0.16 0.12 0.25 0.33 0.35 0.14 0.11 0.35 0.20 0.10 0.05 0.06 0.02 0.02 0.01 0.05 0.10 0.01 0.00 0.00 0.01 0.03 0.04 0.05 0.13 0.12 0.21
0.49 0.71 0.78 0.86 0.97 1.06 1.21 1.71 1.34 1.08 1.28 1.91 1.70 0.97 0.53 0.34 0.20 0.21 0.42 0.34 0.14 0.14 0.34 0.38 0.24 0.12 0.17 0.26 0.10 0.10 0.09 0.12 0.09 0.02 0.03 0.04 0.09 0.01 0.00 0.00 0.00 0.00 0.00 0.01 0.00 0.01 0.01
0.39 0.54 0.70 0.74 0.66 0.70 0.92 1.28 1.72 1.48 1.28 1.38 0.82 0.45 0.36 0.62 0.44 0.34 0.32 0.16 0.20 0.26 0.49 0.32 0.18 0.30 0.22 0.11 0.18 0.18 0.11 0.07 0.07 0.07 0.13 0.19 0.16 0.14 0.07 0.00 0.00 0.01 0.00 0.00 0.00 0.00 0.01
0.23 0.35 0.45 0.54 0.55 0.48 0.62 0.95 1.23 1.72 1.44 0.74 0.39 0.37 0.65 0.79 0.45 0.25 0.24 0.22 0.31 0.34 0.45 0.28 0.15 0.21 0.13 0.06 0.08 0.07 0.05 0.02 0.01 0.01 0.03 0.11 0.12 0.15 0.09 0.01 0.03 0.00 0.00 0.00 0.00 0.01 0.01
0.23 0.33 0.37 0.40 0.42 0.44 0.37 0.58 0.93 1.33 1.45 1.00 0.64 0.55 0.66 0.72 0.44 0.29 0.28 0.31 0.37 0.47 0.39 0.29 0.18 0.11 0.08 0.03 0.01 0.00 0.00 0.00 0.00 0.00 0.01 0.02 0.03 0.03 0.03 0.01 0.01 0.00 0.00 0.00 0.00 0.01 0.00
0.28 0.26 0.34 0.43 0.42 0.37 0.33 0.38 0.47 0.65 0.95 1.00 0.86 0.47 0.45 0.60 0.53 0.30 0.35 0.35 0.33 0.35 0.31 0.17 0.08 0.04 0.01 0.00 0.00 0.00 0.00 0.00 0.00 0.00 0.00 0.00 0.00 0.00 0.00 0.01 0.01 0.00 0.01 0.01 0.02 0.04 0.00
0.26 0.32 0.33 0.38 0.41 0.41 0.31 0.35 0.45 0.48 0.58 0.73 0.78 0.61 0.58 0.75 0.68 0.33 0.31 0.31 0.24 0.20 0.14 0.07 0.05 0.02 0.00 0.00 0.00 0.00 0.00 0.00 0.00 0.00 0.00 0.00 0.00 0.02 0.04 0.12 0.11 0.08 0.04 0.03 0.09 0.05 0.00
0.26 0.30 0.34 0.31 0.28 0.32 0.29 0.18 0.26 0.43 0.50 0.48 0.49 0.37 0.38 0.47 0.41 0.21 0.18 0.14 0.11 0.06 0.03 0.02 0.00 0.00 0.00 0.00 0.00 0.00 0.00 0.00 0.00 0.00 0.01 0.02 0.03 0.01 0.04 0.12 0.09 0.03 0.01 0.00 0.00 0.00 0.00
0.27 0.22 0.24 0.24 0.21 0.24 0.29 0.25 0.22 0.30 0.32 0.31 0.30 0.21 0.17 0.23 0.23 0.08 0.06 0.04 0.03 0.01 0.00 0.00 0.00 0.00 0.00 0.00 0.00 0.01 0.01 0.01 0.01 0.00 0.00 0.00 0.01 0.01 0.00 0.00 0.00 0.00 0.00 0.00 0.00 0.00 0.00